STARLINK-33568, 62779

Orbit data source: Space-Track

STARLINK-33568, 62779 is a payload satellite owned by SpaceX/Seattle (US) in LEO that was launched on Tue, 21 Jan 2025 UTC via an FALCON 9 launch vehicle from the Air Force Western Test Range (AFWTR). Payload-class satellites include a variety of spacecraft equipped with specific instruments for various scientific and technological missions. These include communications satellites like Starlink; space stations such as the ISS; scientific satellites like the Hubble; Earth observation satellites from companies like Planet Labs, Umbra, and HawkEye 360; GPS; miniature CubeSats for education and research; and military/defense satellites.

Loading next visibility...
Identifier
62779, 2025-015X
Orbit
LEO
Country
Flag of USUS
Related business
Manufacturer
SpaceX/Seattle
Mission
Operational Commercial Communications
Bus & Motor
STARLINK V2MO, Unknown motor
Mass
575 kg wet, ~530 kg dry
Launch date (UTC)
2025-01-21 (1 year ago)
Launch vehicle
FALCON 9
Launch site
Air Force Western Test Range (AFWTR)
Object type
Payload
Rocket body
Debris
Shape & HBR
Box + 2 Pan, 17.7 m
Radar Cross Section
36.964 m², Large (>1 m²)

Expand to show TLE details & history
Last TLE update: 11 hours ago

TLE from 11 hours ago
0 STARLINK-33568
1 62779U 25015X   26171.37016299  .00021581  00000-0  64772-3 0  9994
2 62779  53.1577 204.6903 0001081  65.1401 294.9714 15.34414443 80054
Epoch: 2026-06-20T08:53Z
TLE epoch observation values (Epoch: 2026-06-20T08:53:02.082Z)
Latitude
-0°
Longitude
162.84586°
Altitude
463.249 km
Speed
7.636 km/s
True Right ascension
13h 38m 45s
True Declination
0° 00' 00"
Sunlit
Object was in full shadow at epoch
Visualization orbit readout
Latitude
Unknown
Longitude
Unknown
Altitude
Unknown
Speed
Unknown
Apparent Right ascension
Unknown
Apparent Declination
Unknown
Sunlit
N/A
Visualization observer readout
Local Sidereal Time
07:15:08
Azimuth
Unknown
Elevation
Unknown
Doppler factor
Unknown
Orbital elements
Apogee altitude
463.657 km
Perigee altitude
462.178 km
Semi-major axis
6,841.055 km
Eccentricity
0.00011
Inclination
53.1577°
RAAN
204.6903°
Arg. of periapsis
65.1401°
True anomaly
294.96017°
Mean anomaly
294.9714°
Eccentric anomaly
294.96579°
Mean motion
3.83582 °/min
Orbital period
93.85 mins
BSTAR
0.00064772
Loading maneuver chart data...
Computing Atmospheric mass density...
Loading historical data...
Loading historical data...
Loading historical data...
Loading historical data...
Loading historical data...
Loading historical data...
Loading historical data...

Documentation

Showing up to 5 results
|